FW0810 Weather Reports


time (UTC)temp
F
wind
direction
speed
knots
gust
knots
rain 1hr
in
rain 24hr
in
rain mn
in
humidity
%
barometer
mb
20260902065345 72 217 0.0 0.9 0.00 0.00 0.00 76 1022.6
20260902064847 72 267 0.0 0.0 0.00 0.00 0.00 77 1022.5
20260902064340 71 269 0.0 0.0 0.00 0.00 0.00 80 1022.5
20260902063834 69 269 0.0 0.0 0.00 0.00 0.00 82 1022.4
20260902063335 69 269 0.0 0.0 0.00 0.00 0.00 83 1022.5
20260902062834 68 269 0.0 0.0 0.00 0.00 0.00 84 1022.5
20260902062336 67 269 0.0 0.0 0.00 0.00 0.00 84 1022.5
20260902061836 67 269 0.0 0.0 0.00 0.00 0.00 85 1022.5
20260902061334 66 269 0.0 0.0 0.00 0.00 0.00 86 1022.5
20260902060830 65 269 0.0 0.0 0.00 0.00 0.00 86 1022.4
20260902060330 65 269 0.0 0.0 0.00 0.00 0.00 86 1022.4
20260902055829 65 269 0.0 0.0 0.00 0.00 0.00 86 1022.3
20260902055328 65 269 0.0 0.9 0.00 0.00 0.00 86 1022.3
20260902054827 65 269 0.0 1.7 0.00 0.00 0.00 85 1022.3
20260902054328 65 269 0.0 1.7 0.00 0.00 0.00 85 1022.4
20260902053826 65 267 0.0 0.0 0.00 0.00 0.00 85 1022.4
20260902053342 65 267 0.0 0.0 0.00 0.00 0.00 86 1022.2
20260902052327 64 267 0.0 0.0 0.00 0.00 0.00 87 1022.1
20260902051827 64 267 0.0 0.0 0.00 0.00 0.00 88 1022.1
20260902051326 64 267 0.0 0.0 0.00 0.00 0.00 88 1022.0
20260902050825 63 267 0.0 0.0 0.00 0.00 0.00 87 1022.0
20260902050324 63 267 0.0 0.0 0.00 0.00 0.00 87 1022.0
20260902045824 63 267 0.0 0.0 0.00 0.00 0.00 87 1022.0
20260902043826 64 263 0.0 0.0 0.00 0.00 0.00 87 1022.0
20260902042320 64 263 0.0 0.0 0.00 0.00 0.00 86 1022.0
20260902041822 64 263 0.0 0.0 0.00 0.00 0.00 86 1021.9
20260902041320 64 269 0.0 0.0 0.00 0.00 0.00 86 1021.9
20260902040821 64 269 0.0 0.0 0.00 0.00 0.00 86 1021.9
20260902040320 64 269 0.0 0.9 0.00 0.00 0.00 86 1021.8
20260902035820 64 269 0.0 0.9 0.00 0.00 0.00 86 1021.9
20260902035321 64 269 0.0 2.6 0.00 0.00 0.00 85 1021.8
20260902034822 65 269 0.0 2.6 0.00 0.00 0.00 85 1021.8
20260902034319 65 266 0.0 0.0 0.00 0.00 0.00 85 1021.9
20260902033817 65 266 0.0 0.0 0.00 0.00 0.00 85 1021.8
20260902033317 65 266 0.0 0.0 0.00 0.00 0.00 85 1021.8
20260902032817 65 266 0.0 0.0 0.00 0.00 0.00 85 1021.9
20260902032316 65 266 0.0 0.0 0.00 0.00 0.00 85 1021.9
20260902031815 65 266 0.0 0.0 0.00 0.00 0.00 84 1022.0
20260902031328 65 268 0.0 0.0 0.00 0.00 0.00 84 1022.1
20260902030817 65 268 0.0 0.0 0.00 0.00 0.00 85 1022.0
20260902030317 66 268 0.0 0.9 0.00 0.00 0.00 84 1022.0
20260902025808 66 268 0.0 0.9 0.00 0.00 0.00 84 1022.0
20260902025306 66 266 0.0 0.0 0.00 0.00 0.00 85 1022.0
20260902024756 65 266 0.0 0.0 0.00 0.00 0.00 85 1022.0
20260902024250 65 266 0.0 0.0 0.00 0.00 0.00 85 1022.0
20260902023745 65 273 0.0 2.6 0.00 0.00 0.00 84 1022.0
20260902023238 66 276 0.0 3.5 0.00 0.00 0.00 84 1022.0
20260902022227 66 274 0.0 1.7 0.00 0.00 0.00 84 1022.0
20260902021721 66 275 0.0 1.7 0.00 0.00 0.00 84 1022.0
20260902021227 66 272 0.0 0.9 0.00 0.00 0.00 83 1021.9
20260902020707 66 272 0.0 0.0 0.00 0.00 0.00 83 1021.9
20260902020203 67 272 0.0 0.0 0.00 0.00 0.00 83 1021.9
20260902015657 67 272 0.0 0.0 0.00 0.00 0.00 83 1021.9
20260902015151 67 273 0.0 2.6 0.00 0.00 0.00 83 1022.0
20260902014648 67 273 0.0 2.6 0.00 0.00 0.00 83 1022.0
20260902014146 67 275 0.0 1.7 0.00 0.00 0.00 82 1021.9
20260902013645 67 278 0.0 2.6 0.00 0.00 0.00 82 1022.0
20260902013142 67 274 0.0 2.6 0.00 0.00 0.00 81 1022.0
20260902012642 68 273 0.0 2.6 0.00 0.00 0.00 81 1022.1
20260902012144 68 265 0.0 0.9 0.00 0.00 0.00 81 1021.9
20260902011642 68 264 0.0 0.0 0.00 0.00 0.00 81 1021.9
20260902011145 68 264 0.0 1.7 0.00 0.00 0.00 81 1021.9
20260902010655 68 264 0.0 1.7 0.00 0.00 0.00 80 1022.0
20260902010153 69 271 0.0 0.9 0.00 0.00 0.00 80 1022.1
20260902005638 69 271 0.0 0.9 0.00 0.00 0.00 80 1022.0
20260902005138 69 271 0.0 0.0 0.00 0.00 0.00 80 1022.1
20260902004634 69 271 0.0 2.6 0.00 0.00 0.00 80 1022.0
20260902004133 69 271 0.0 2.6 0.00 0.00 0.00 80 1022.0
20260902003633 69 266 0.0 0.0 0.00 0.00 0.00 80 1022.0
20260902003130 69 266 0.0 0.0 0.00 0.00 0.00 79 1022.1
20260902002628 69 266 0.0 2.6 0.00 0.00 0.00 79 1022.0
20260902002128 69 266 0.0 2.6 0.00 0.00 0.00 79 1022.0
20260902001126 69 263 0.0 0.0 0.00 0.00 0.00 79 1022.1
20260902000625 69 264 0.0 0.9 0.00 0.00 0.00 78 1022.2
20260902000122 69 269 0.0 2.6 0.00 0.00 0.00 78 1022.2
20260901235621 69 271 0.0 2.6 0.00 0.00 0.00 78 1022.2
20260901235121 69 270 0.0 3.5 0.00 0.00 0.00 78 1022.3
20260901234619 69 262 0.0 3.5 0.00 0.00 0.00 78 1022.2
20260901234119 70 274 0.0 0.9 0.00 0.00 0.00 78 1022.2
20260901233618 70 272 0.0 0.0 0.00 0.00 0.00 78 1022.2
20260901233118 70 273 0.0 0.9 0.00 0.00 0.00 78 1022.2
20260901232617 70 272 0.0 1.7 0.00 0.00 0.00 77 1022.2
20260901232117 70 272 0.0 1.7 0.00 0.00 0.00 77 1022.3
20260901231115 70 271 0.0 0.0 0.00 0.00 0.00 76 1022.4
20260901230615 70 272 0.0 4.3 0.00 0.00 0.00 75 1022.3
20260901230130 71 272 0.0 4.3 0.00 0.00 0.00 75 1022.3
20260901225613 71 274 0.0 0.9 0.00 0.00 0.00 74 1022.4
20260901225112 71 278 0.0 2.6 0.00 0.00 0.00 74 1022.5
20260901224610 72 268 0.0 2.6 0.00 0.00 0.00 74 1022.5
20260901223607 72 282 0.0 4.3 0.00 0.00 0.00 73 1022.3
20260901223101 72 271 0.0 1.7 0.00 0.00 0.00 74 1022.4
20260901222556 72 274 0.0 1.7 0.00 0.00 0.00 74 1022.3
20260901222052 72 274 0.0 3.5 0.00 0.00 0.00 73 1022.3
20260901221542 72 274 0.0 3.5 0.00 0.00 0.00 73 1022.4
20260901220531 72 272 0.0 2.6 0.00 0.00 0.00 72 1022.4
20260901215013 72 271 0.0 1.7 0.00 0.00 0.00 72 1022.2
20260901213455 72 274 0.0 1.7 0.00 0.00 0.00 70 1022.0
20260901212949 72 275 0.0 0.0 0.00 0.00 0.00 70 1022.0
20260901212445 72 276 0.0 0.0 0.00 0.00 0.00 70 1022.0
20260901211937 72 275 0.0 3.5 0.00 0.00 0.00 69 1021.9
20260901211433 72 278 0.0 3.5 0.00 0.00 0.00 68 1021.9
20260901210928 73 275 0.0 2.6 0.00 0.00 0.00 67 1021.9
20260901210427 73 268 0.0 0.0 0.00 0.00 0.00 67 1021.8
20260901205930 73 268 0.0 0.0 0.00 0.00 0.00 67 1021.8
20260901205428 73 268 0.0 0.0 0.00 0.00 0.00 67 1021.7
20260901204929 73 268 0.0 0.0 0.00 0.00 0.00 67 1021.7
20260901204427 73 268 0.0 1.7 0.00 0.00 0.00 66 1021.7
20260901203425 73 266 0.0 2.6 0.00 0.00 0.00 65 1021.7
20260901202927 73 272 0.0 2.6 0.00 0.00 0.00 64 1021.7
20260901202426 74 276 0.0 1.7 0.00 0.00 0.00 63 1021.6
20260901201927 74 269 0.0 0.9 0.00 0.00 0.00 62 1021.7
20260901201426 74 269 0.0 0.9 0.00 0.00 0.00 62 1021.7
20260901200928 74 269 0.0 0.9 0.00 0.00 0.00 62 1021.6
20260901200427 74 268 0.0 0.9 0.00 0.00 0.00 62 1021.6
20260901195426 75 275 0.0 3.5 0.00 0.00 0.00 60 1021.5
20260901194928 76 268 0.0 0.9 0.00 0.00 0.00 59 1021.5
20260901194420 76 267 0.0 0.9 0.00 0.00 0.00 58 1021.5
20260901193913 77 268 0.0 0.0 0.00 0.00 0.00 57 1021.5
20260901193407 77 267 0.0 0.0 0.00 0.00 0.00 56 1021.4
20260901192903 77 267 0.0 0.0 0.00 0.00 0.00 55 1021.3
20260901192352 77 267 0.0 0.9 0.00 0.00 0.00 54 1021.3
20260901191848 78 267 0.0 0.9 0.00 0.00 0.00 53 1021.2
20260901191341 78 269 0.0 0.0 0.00 0.00 0.00 52 1021.3
20260901190838 78 271 0.0 0.0 0.00 0.00 0.00 52 1021.2
20260901190330 79 274 0.0 0.0 0.00 0.00 0.00 51 1021.1
20260901185320 80 276 0.0 0.0 0.00 0.00 0.00 49 1021.0
20260901184814 80 277 0.0 0.0 0.00 0.00 0.00 48 1021.0
20260901184306 81 278 0.0 0.0 0.00 0.00 0.00 48 1021.0
20260901183800 81 278 0.0 0.0 0.00 0.00 0.00 48 1020.9
20260901183254 82 278 0.0 0.0 0.00 0.00 0.00 47 1020.9
20260901182747 82 278 0.0 0.0 0.00 0.00 0.00 46 1020.8
20260901182241 83 280 0.0 0.0 0.00 0.00 0.00 45 1020.7
20260901181736 83 280 0.0 0.0 0.00 0.00 0.00 45 1020.7
20260901181230 84 280 0.0 0.0 0.00 0.00 0.00 44 1020.6
20260901180725 84 280 0.0 0.0 0.00 0.00 0.00 44 1020.6
20260901180217 85 280 0.0 0.0 0.00 0.00 0.00 44 1020.4
20260901175713 85 280 0.0 0.0 0.00 0.00 0.00 43 1020.4
20260901175205 86 280 0.0 0.0 0.00 0.00 0.00 42 1020.3
20260901174701 87 279 0.0 0.0 0.00 0.00 0.00 41 1020.3
20260901174159 87 279 0.0 0.0 0.00 0.00 0.00 39 1020.2
20260901173659 88 279 0.0 0.0 0.00 0.00 0.00 38 1020.2
20260901173157 88 279 0.0 0.9 0.00 0.00 0.00 38 1020.2
20260901172155 89 278 0.0 1.7 0.00 0.00 0.00 37 1020.2
20260901171656 90 273 0.0 2.6 0.00 0.00 0.00 37 1020.0
20260901171154 91 295 0.0 2.6 0.00 0.00 0.00 38 1020.0
20260901170152 91 272 0.0 1.7 0.00 0.00 0.00 37 1019.9
20260901165653 91 280 0.0 3.5 0.00 0.00 0.00 37 1020.0
20260901165149 92 264 0.0 5.2 0.00 0.00 0.00 36 1020.0
20260901164647 92 281 0.9 5.2 0.00 0.00 0.00 37 1020.0
20260901163649 92 305 0.9 6.1 0.00 0.00 0.00 36 1020.0
20260901163147 92 268 0.0 4.3 0.00 0.00 0.00 36 1020.2
20260901162647 92 288 0.0 5.2 0.00 0.00 0.00 35 1020.0
20260901162149 92 269 0.9 7.0 0.00 0.00 0.00 35 1020.0
20260901161647 92 271 1.7 8.7 0.00 0.00 0.00 34 1020.0
20260901160641 93 281 1.7 8.7 0.00 0.00 0.00 34 1020.0
20260901155642 94 280 0.9 7.0 0.00 0.00 0.00 33 1020.0
20260901155141 94 284 0.9 7.0 0.00 0.00 0.00 31 1020.0
20260901153637 94 278 1.7 10.4 0.00 0.00 0.00 31 1019.9
20260901153137 94 341 1.7 10.4 0.00 0.00 0.00 31 1019.9
20260901152650 94 274 0.9 7.0 0.00 0.00 0.00 31 1019.9
20260901152137 94 335 0.9 4.3 0.00 0.00 0.00 32 1019.8
20260901151637 94 13 0.9 7.0 0.00 0.00 0.00 33 1019.8
20260901151137 94 281 0.9 7.0 0.00 0.00 0.00 33 1019.8
20260901150637 94 299 0.9 6.1 0.00 0.00 0.00 31 1019.8
20260901150138 94 274 0.9 7.8 0.00 0.00 0.00 32 1019.9
20260901145638 94 295 1.7 7.8 0.00 0.00 0.00 32 1019.8
20260901145137 94 0 1.7 7.8 0.00 0.00 0.00 33 1019.8
20260901144631 94 278 0.9 7.8 0.00 0.00 0.00 33 1019.8
20260901144132 94 263 0.9 7.8 0.00 0.00 0.00 33 1019.9
20260901143631 94 277 2.6 7.8 0.00 0.00 0.00 34 1019.8
20260901143130 94 293 1.7 7.8 0.00 0.00 0.00 34 1019.9
20260901142633 95 266 0.9 7.8 0.00 0.00 0.00 33 1020.0
20260901142145 94 231 1.7 8.7 0.00 0.00 0.00 33 1019.9
20260901141631 94 276 1.7 8.7 0.00 0.00 0.00 33 1020.0
20260901141131 94 316 0.9 7.8 0.00 0.00 0.00 33 1019.9
20260901140631 94 262 1.7 7.0 0.00 0.00 0.00 32 1020.0
20260901140132 94 276 1.7 7.8 0.00 0.00 0.00 32 1020.0
20260901135629 94 290 2.6 7.8 0.00 0.00 0.00 32 1019.9
20260901135127 94 302 2.6 8.7 0.00 0.00 0.00 33 1020.0
20260901134629 94 267 2.6 8.7 0.00 0.00 0.00 33 1019.9
20260901134127 95 248 1.7 9.6 0.00 0.00 0.00 33 1020.0
20260901133629 95 217 1.7 9.6 0.00 0.00 0.00 32 1020.0
20260901133127 95 283 1.7 7.8 0.00 0.00 0.00 33 1020.0
20260901132627 95 290 0.9 7.8 0.00 0.00 0.00 34 1020.0
20260901131630 95 255 0.0 2.6 0.00 0.00 0.00 36 1020.3
20260901131125 94 341 0.9 6.1 0.00 0.00 0.00 36 1020.3
20260901130625 94 267 0.9 6.1 0.00 0.00 0.00 35 1020.3
20260901130125 94 176 0.9 5.2 0.00 0.00 0.00 35 1020.4
20260901125124 93 274 2.6 9.6 0.00 0.00 0.00 37 1020.5
20260901124624 93 279 1.7 9.6 0.00 0.00 0.00 36 1020.5
20260901124125 93 283 0.0 3.5 0.00 0.00 0.00 39 1020.6
20260901123624 93 269 0.0 5.2 0.00 0.00 0.00 42 1020.6
20260901123124 93 84 0.9 6.1 0.00 0.00 0.00 41 1020.6
20260901122620 93 295 0.9 7.0 0.00 0.00 0.00 40 1020.6
20260901122121 93 230 0.9 7.0 0.00 0.00 0.00 40 1020.7
20260901121119 92 335 0.0 5.2 0.00 0.00 0.00 42 1020.8
20260901120619 92 308 0.0 4.3 0.00 0.00 0.00 44 1020.7
20260901120122 92 334 0.9 5.2 0.00 0.00 0.00 43 1020.8
20260901115615 92 243 0.9 5.2 0.00 0.00 0.00 44 1020.8
20260901115116 92 248 0.0 3.5 0.00 0.00 0.00 45 1020.7
20260901114614 92 284 0.0 3.5 0.00 0.00 0.00 44 1020.9
20260901114113 91 298 0.0 4.3 0.00 0.00 0.00 45 1020.9
20260901113113 91 285 0.0 4.3 0.00 0.00 0.00 46 1021.0
20260901112613 91 251 0.0 4.3 0.00 0.00 0.00 47 1021.0
20260901112115 91 280 0.0 4.3 0.00 0.00 0.00 47 1021.0
20260901111114 90 240 0.0 2.6 0.00 0.00 0.00 50 1021.1
20260901110612 90 218 0.0 2.6 0.00 0.00 0.00 50 1021.1
20260901110106 90 161 0.0 2.6 0.00 0.00 0.00 52 1021.2
20260901105558 90 268 0.0 4.3 0.00 0.00 0.00 52 1021.2
20260901105052 90 256 0.0 4.3 0.00 0.00 0.00 50 1021.2
20260901104546 89 295 0.0 4.3 0.00 0.00 0.00 48 1021.2
20260901103537 89 223 0.0 4.3 0.00 0.00 0.00 48 1021.3
20260901102535 88 349 0.0 3.5 0.00 0.00 0.00 48 1021.5
20260901102017 88 306 0.0 4.3 0.00 0.00 0.00 51 1021.5
20260901101510 88 266 0.0 4.3 0.00 0.00 0.00 52 1021.5
20260901101005 88 254 0.0 2.6 0.00 0.00 0.00 50 1021.6
20260901100500 87 322 0.0 2.6 0.00 0.00 0.00 52 1021.7
20260901095952 87 347 0.0 4.3 0.00 0.00 0.00 53 1021.6
20260901095446 87 309 0.9 4.3 0.00 0.00 0.00 54 1021.6
20260901094942 87 341 0.9 4.3 0.00 0.00 0.00 54 1021.6
20260901094437 87 342 0.0 4.3 0.00 0.00 0.00 58 1021.6
20260901093425 86 356 0.0 3.5 0.00 0.00 0.00 59 1021.6
20260901092924 86 328 0.0 2.6 0.00 0.00 0.00 60 1021.6
20260901091921 85 287 0.0 3.5 0.00 0.00 0.00 60 1021.6
20260901090918 85 12 0.9 4.3 0.00 0.00 0.00 61 1021.7
20260901090418 85 359 0.0 4.3 0.00 0.00 0.00 61 1021.7
20260901085920 86 144 0.0 0.0 0.00 0.00 0.00 63 1021.6
20260901085419 85 145 0.0 0.0 0.00 0.00 0.00 65 1021.6
20260901084916 84 145 0.9 2.6 0.00 0.00 0.00 66 1021.6
20260901083916 84 137 0.0 3.5 0.00 0.00 0.00 65 1021.6
20260901082914 84 146 0.0 0.9 0.00 0.00 0.00 65 1021.5
20260901082410 83 147 0.0 0.9 0.00 0.00 0.00 65 1021.6
20260901081408 83 144 0.0 3.5 0.00 0.00 0.00 66 1021.5
20260901080909 82 143 0.9 3.5 0.00 0.00 0.00 66 1021.4
20260901080409 82 153 0.0 3.5 0.00 0.00 0.00 66 1021.5
20260901075906 82 162 0.0 2.6 0.00 0.00 0.00 66 1021.4
20260901075401 82 214 0.0 0.9 0.00 0.00 0.00 68 1021.4
20260901074855 81 217 0.0 0.9 0.00 0.00 0.00 68 1021.4
20260901074407 80 217 0.0 0.9 0.00 0.00 0.00 69 1021.4
20260901073855 80 220 0.0 0.9 0.00 0.00 0.00 70 1021.5
20260901073354 80 220 0.0 0.9 0.00 0.00 0.00 71 1021.4
20260901072852 79 223 0.0 0.0 0.00 0.00 0.00 71 1021.4
20260901071848 78 224 0.0 0.0 0.00 0.00 0.00 73 1021.3
20260901071347 77 224 0.0 0.0 0.00 0.00 0.00 73 1021.3
20260901070845 76 229 0.0 0.0 0.00 0.00 0.00 75 1021.3